Погода Алматы

Погода Алматы : погода сейчас, прогноз погоды и архив. Всё, что Вы хотите узнать о погоде Алматы!

Поиск расширенной информации на нашем сайте:

Другие новости

Новости СМИ2

Главная страница сайта

Новости сайта

03.07.2017

Напоминаем, что на нашем специализированном сайте Метеоцентр.Азия вы можете получить высокодетализированные автоматические прогнозы погоды по пунктам России, СНГ и мира в авиационном формате (включающие направление и скорость ветра, видимость, явления погоды, количество и форму облачности, нижнюю и верхнюю границу облачности).


Погода Алматы - сегодня

Время (UTC), дата Ветер
(°,м/с) 
Видим.   Явления Облачность Т
(°С)
Тd
(°С)
f(%) Тe
(°С)
Pmin
(гПа)
dP
(гПа)
Po
(мм)
O2
(г/м3)
Тmin Tmax R s Состояние
почвы
18 17.08.18 тихо ()   н/о    8/0 средняя, верхняя 
[Ac trans|Ci fib]
+22.6 +11.4 49 +28  1007  -0.3  686  253    +33.8       
21 17.08.18 тихо ()   н/о    10/0 верхняя 
[Ci fib]
+21.2 +10.4 50 +25  1005.5  -1.7  685  254           
00 18.08.18 тихо () {05}  10 км    10/4 600 м кучево-дожд., верхняя 
[Cb cap|Ci fib]
+20.6 +10.6 53 +24  1005.1  -0.6  684  254           
03 18.08.18 350 (С) 10 км    10/0 средняя, верхняя 
[Ac lent|Cc]
+24.6 +7.7 34 +25  1003.3  -0.5  684  251           
06 18.08.18 080 (В) 10 км  в посл. час ливневой дождь  10/10 600 м кучево-дожд. 
[Cb cap]
+25.9 +7.9 32 +26  1002.4  -0.4  683  250  +20.2         
09 18.08.18 360 (С) 10 км  в посл. час ливневой дождь  10/10 600 м кучево-дожд. 
[Cb cap]
+24.2 +11.8 46 +30  1003.2  0.3  684  251           
12 18.08.18 210 (ЮЗ) 10 км  в посл. час ливневой дождь  10/10 600 м кучево-дожд. 
[Cb cap]
+25.4 +11 40 +30  1003.4  0.5  684  250           
15 18.08.18 тихо ()   н/о  {ливн. осадки}  10/3 600 м кучево-дожд., верхняя 
[Cb cap|Ci fib]
+23.9 +12.7 49 +31  1003.6  -0.3  684  251    +27.8       
18 18.08.18 тихо ()   н/о  {ливн. осадки}  6/0 верхняя 
[Ci fib]
+20.1 +10.5 54 +24  1004.8  -0.1  684  255    +27.8  0.0     
21 18.08.18 250 (З) н/о    ясно 
+20.3 +6.9 42 +20  1003.4  -1.2  683  255           
00 19.08.18 тихо () {05}  10 км    ясно 
+18.4 +8.8 54 +20  1004.6  0.6  683  256           
06 19.08.18 010 (С) 10 км    1/1 1000 м 
[Cu hum]
+30.6 +11 30 +35  1001.3  -0.1  684  246  +18.4         
09 19.08.18 060 (СВ) 10 км    4/3 1000 м средняя, верхняя 
[Cu med, cong|Ac trans|Ci fib]
+31 +7 22 +31  1000.6  -0.7  683  246           
12 19.08.18 020 (С) 10 км    3/3 1000 м верхняя 
[Cu med, cong|Ci fib]
+30.6 +9.3 27 +33  1000.2  -0.4  683  246           
15 19.08.18 тихо ()   н/о    6/3 1000 м верхняя 
[Cu med, cong|Ci fib]
+25.9 +12.4 43 +33  1003.7  684  249    +32.2       
18 19.08.18 тихо ()   н/о    8/0 верхняя 
[Ci fib]
+23.4 +8.7 39 +25  1003.6  -1  684  252    +32.2       
21 19.08.18 130 (ЮВ) н/о    10/0 верхняя 
[Ci fib]
+25.4 +5.7 28 +25  1002.6  -0.4  683  251           
00 20.08.18 тихо () {05}  10 км    ясно 
+22.7 +7.9 39 +23  1003  -0.3  683  253           
03 20.08.18 тихо ()   20000 м    ясно 
+29 +11.2 33 +34  1002.1  684  247           
06 20.08.18 250 (З) 20000 м    ясно 
+32.5 +11.9 28 +38  1000.4  -0.5  683  244  +20.5         
09 20.08.18 320 (СЗ) 10 км    1/1 1000 м 
[Cu hum]
+34.9 +9.6 21 +37  998.7  -1  683  242           
12 20.08.18 тихо ()   10 км    ясно 
+32.9 +7.3 20 +33  998.4  -0.9  682  244           
15 20.08.18 тихо ()   н/о    ясно 
+28 +10.9 34 +32  1001.3  1.4  683  248    +35.2       
18 20.08.18 тихо ()   н/о    ясно 
+26.5 +9.9 35 +29  1003.5  1.5  684  249    +35.2       
21 20.08.18 тихо ()   н/о    10/4 600 м кучево-дожд., средняя 
[Cb cap|Ac trans]
+23.3 +12.5 51 +30  1010.2  5.3  688  253           
Время (UTC), дата Ветер
(°,м/с) 
Видим.   Явления Облачность Т
(°С)
Тd
(°С)
f(%) Тe
(°С)
Pmin
(гПа)
dP
(гПа)
Po
(мм)
O2
(г/м3)
Тmin Tmax R s Состояние
почвы

Для получения пояснительной информации подведите курсор к названию столбца.

ПОГОДА Алматы - архив

Всё, что Вы хотите узнать о погоде Алматы - удобно и подробно!

Выберите нужную дату (начиная с 1 января 2015* года) и нажмите кнопку "Найти".
Будут отображены архивные сводки погоды по пункту Алматы, начиная с указанной даты.


Отображать данные в формате CSV (для использования в таблицах Excel)


Внимание! Наш архив погоды предназначен исключительно для личного некоммерческого использования в познавательных целях. Если Вам необходимы официальные справки о состоянии погоды (для производственных, юридических, коммерческих и т.п. целей), обращайтесь в органы Росгидромета.

*Примечание: данная дата относится к архиву по метеостанциям СССР (Россия, СНГ, Балтия).
Архив по метеостанциям Зарубежной Европы и Азии (кроме Китая) хранится 10 дней, по другим регионам земного шара (Китай, Африка, Америка, Австралия, Океания) - 1 день.

Алматы - район местоположения метеостанции


Название, широта, долгота, высота метеостанции:
Алматы (город) 43.2°ш. 76.9°д. 851 м над ур. моря [Казахстан]

Дополнительная информация

В oтличие oт бoльшинства пoгoдных сайтoв мы публикуем пoдрoбную метеoинфoрмацию в детальнoм прoфессиoнальнoм фoрмате.

Характеристики температуры и влажнoсти вoздуха измеряются на высoте 2 м в тени вдали oт зданий и деревьев.
Скoрoсть ветра измеряется на высoте 10 м (на урoвне рoста челoвека скoрoсть ветра ниже в 1.5-2 раза). Если метеoстанция нахoдится в гoрoде или в лесу, тo скoрoсть ветра занижена на 2-4 м/с пo сравнению с oткрытым местoм. Скoрoсть ветра над акватoриями крупных рек и oзёр, а также на вершинах хoлмoв на 2-5 м/с выше, чем в oбычных услoвиях.
Атмoсфернoе давление в разных тoчках местнoсти мoжет значительнo oтличаться oт давления на метеoстанции, в зависимoсти oт услoвий рельефа (при пoдъёме на 10 м давление пoнижается примернo на 1 мм рт.ст.).